Temperature
6 7 6 9 11 10 9 10 9 10 11 11 12 12 11 12 11 10 10 11 11 11 11 11 10 9 9 8 8 8 7 7 6 5 5 4 4 3 3 2 2 1 1 1
6 8 8 10 11 10 10 8 8 8 9 13 12 12 11 11 11 10 10 11 11 11 11 10 10 9 8 8 7 7 6 6 5 4 4 3 3 2 2 1 1 1 0 -0
8 10 10 10 11 10 8 7 7 7 11 12 11 12 10 11 11 11 11 11 11 12 11 10 9 9 8 7 6 6 5 4 4 3 3 2 2 1 1 1 0 0 -0 -1
9 10 9 12 12 10 8 9 9 12 11 10 9 7 9 11 12 11 11 11 11 11 11 9 9 8 7 6 5 5 4 3 3 2 2 1 1 0 0 -0 -0 -1 -1 -2
9 10 12 13 12 12 12 12 12 11 8 7 8 10 8 10 12 12 12 12 12 11 10 9 7 6 6 5 4 4 3 2 2 2 1 1 0 -0 -1 -1 -1 -1 -2 -3
9 10 11 13 13 12 13 12 11 9 8 8 9 10 7 7 10 11 11 11 10 10 8 7 6 5 5 4 3 2 2 2 1 1 0 -0 -1 -1 -1 -2 -2 -3 -3 -3
9 9 9 12 12 12 12 12 11 10 9 9 8 8 7 7 9 9 9 9 9 8 7 6 5 4 4 3 2 2 1 1 0 -0 -1 -1 -1 -2 -2 -3 -3 -3 -3 -4
9 9 9 11 12 11 11 9 9 9 9 7 6 6 6 7 7 8 7 7 6 6 5 4 3 3 3 2 1 1 1 0 -1 -1 -2 -2 -2 -2 -3 -3 -3 -3 -4 -4
10 9 10 10 11 11 11 9 8 9 9 9 6 5 6 6 6 6 6 6 5 5 4 3 2 2 2 1 1 0 -0 -1 -1 -2 -2 -3 -3 -3 -3 -3 -4 -4 -6 -7
10 10 9 10 11 11 11 11 9 9 9 9 7 6 6 6 5 5 5 5 4 4 3 2 1 1 0 0 -0 -1 -1 -2 -2 -3 -3 -3 -4 -4 -4 -4 -5 -6 -7 -8
9 8 8 9 10 11 11 10 9 8 8 8 7 6 6 6 5 5 4 4 3 3 2 1 1 0 -0 -1 -1 -2 -2 -3 -3 -3 -3 -4 -4 -5 -5 -5 -7 -8 -9 -9
10 9 10 9 10 10 10 9 9 8 7 7 7 7 6 5 5 4 3 3 2 1 1 0 -0 -1 -1 -1 -2 -2 -3 -3 -3 -4 -4 -4 -4 -4 -5 -6 -7 -8 -8 -9
11 11 10 10 9 9 9 9 8 8 8 7 6 6 6 5 4 3 3 2 1 1 0 -0 -1 -1 -2 -2 -3 -3 -3 -4 -4 -4 -4 -5 -5 -6 -6 -6 -7 -8 -8 -9
11 10 7 7 7 8 8 8 8 7 6 6 6 5 5 4 3 3 2 1 0 -0 -1 -1 -2 -2 -3 -3 -3 -4 -4 -4 -4 -5 -5 -5 -6 -7 -8 -8 -9 -8 -9 -9
9 10 9 7 7 7 7 7 6 5 5 5 4 5 4 4 3 2 1 0 -0 -1 -1 -2 -2 -3 -3 -3 -4 -4 -4 -5 -5 -5 -6 -6 -7 -8 -8 -9 -9 -9 -10 -10
8 8 7 7 6 6 6 6 6 4 4 4 4 3 3 3 2 1 0 -1 -1 -1 -2 -3 -3 -3 -3 -4 -4 -4 -5 -5 -5 -6 -6 -7 -8 -8 -9 -9 -10 -10 -10 -11
7 4 4 4 5 5 5 6 6 5 4 4 3 3 2 1 1 -0 -1 -2 -2 -3 -3 -3 -3 -3 -4 -4 -5 -5 -5 -5 -6 -6 -7 -8 -8 -9 -9 -10 -10 -11 -11 -11
10 9 8 8 6 5 5 5 5 5 4 3 2 2 1 1 0 -1 -2 -2 -3 -3 -3 -4 -4 -4 -5 -5 -5 -5 -6 -6 -7 -7 -8 -8 -9 -9 -10 -10 -11 -11 -11 -11
9 8 7 6 6 6 5 5 4 4 3 2 2 1 -0 -1 -1 -2 -2 -2 -3 -3 -4 -4 -5 -5 -5 -5 -6 -6 -7 -7 -7 -8 -8 -9 -9 -10 -10 -11 -11 -11 -12 -12
7 7 6 6 5 6 5 4 3 3 2 1 1 -0 -1 -1 -2 -2 -3 -3 -4 -4 -4 -5 -5 -5 -6 -6 -6 -7 -7 -7 -8 -8 -9 -10 -10 -10 -11 -11 -12 -12 -12 -12
6 5 5 5 5 4 4 4 3 2 1 0 0 0 -1 -1 -2 -3 -3 -3 -4 -5 -5 -5 -5 -6 -6 -6 -7 -7 -8 -8 -9 -9 -10 -10 -10 -11 -11 -11 -12 -12 -12 -12
5 4 4 4 4 3 3 2 2 1 0 -0 -0 -0 -1 -2 -3 -4 -4 -4 -5 -5 -5 -6 -6 -6 -7 -7 -7 -8 -8 -9 -9 -10 -10 -11 -11 -11 -12 -12 -12 -12 -12 -12
4 4 4 3 3 2 1 1 1 1 0 -0 -1 -2 -2 -3 -4 -4 -4 -5 -5 -6 -6 -6 -6 -7 -7 -7 -8 -8 -9 -9 -10 -10 -11 -11 -12 -12 -12 -12 -12 -12 -12 -12
3 3 3 2 2 1 1 -0 -0 -1 -1 -2 -2 -3 -3 -3 -4 -4 -5 -5 -6 -6 -6 -7 -7 -7 -8 -8 -9 -9 -10 -10 -10 -11 -11 -11 -12 -12 -12 -12 -12 -12 -12 -12
3 3 2 2 2 1 0 -1 -1 -2 -2 -3 -3 -4 -4 -4 -4 -5 -5 -6 -6 -7 -7 -7 -7 -8 -8 -9 -9 -10 -10 -11 -11 -11 -11 -11 -12 -12 -12 -12 -12 -12 -12 -12
2 2 2 2 1 0 -0 -1 -2 -2 -3 -3 -4 -5 -5 -5 -5 -6 -6 -6 -7 -7 -7 -8 -8 -8 -9 -9 -10 -10 -11 -11 -11 -11 -11 -12 -12 -12 -12 -12 -12 -12 -12 -11
1 1 0 -0 -1 -1 -1 -2 -2 -3 -4 -4 -4 -5 -5 -6 -6 -6 -7 -7 -7 -7 -8 -8 -9 -9 -9 -10 -10 -11 -11 -11 -11 -12 -12 -12 -12 -12 -12 -12 -12 -12 -11 -11
Wind_Speed
16 15 13 15 24 22 16 12 12 11 19 30 20 11 12 13 15 16 16 16 16 16 13 13 12 11 10 10 9 10 10 9 7 6 5 4 4 3 4 4 5 6 7 8
11 10 16 14 24 21 15 11 10 14 17 22 7 5 9 13 16 17 18 17 16 15 14 13 13 12 11 10 9 10 9 8 7 6 5 4 3 3 4 6 6 6 7 8
2 10 12 9 19 16 9 13 16 19 20 8 5 5 7 12 17 19 18 17 17 16 14 13 13 13 12 10 10 9 9 8 6 5 5 4 4 4 5 5 6 7 7 8
1 4 2 2 15 23 23 26 27 19 6 9 9 6 7 3 7 10 12 13 13 13 12 10 10 11 11 10 10 9 8 7 6 5 5 4 4 4 4 4 5 6 7 8
3 1 1 1 4 11 13 9 5 6 9 8 8 6 9 9 6 8 9 11 12 12 12 12 12 12 12 10 9 9 7 6 5 5 4 3 3 4 3 4 5 5 6 8
3 3 2 2 2 2 2 3 3 9 13 12 7 5 1 4 10 15 14 14 15 14 15 14 11 11 12 10 9 7 7 6 5 4 4 3 3 4 3 4 6 7 7 8
1 2 5 4 1 2 4 5 4 10 12 10 5 6 10 9 11 13 14 15 15 14 13 11 10 11 11 9 7 7 6 5 4 4 4 4 4 4 4 6 6 7 7 7
3 2 5 3 2 2 4 2 4 6 7 10 13 16 14 12 12 13 13 12 13 13 11 8 9 12 10 8 7 6 6 5 5 5 5 5 6 6 6 6 6 7 7 7
6 7 3 1 1 1 2 5 5 7 12 19 18 16 13 10 10 10 11 11 10 12 11 8 8 10 10 7 6 6 6 5 5 5 5 5 5 6 5 6 6 6 7 7
3 3 1 1 2 3 4 5 9 13 16 18 19 15 13 11 10 10 10 10 10 11 10 8 7 8 8 7 6 6 6 5 4 4 5 5 4 4 5 5 6 7 8 8
3 2 1 2 2 5 9 13 14 13 13 16 18 15 13 11 10 9 9 8 9 10 10 8 8 7 7 6 7 6 5 4 3 3 3 4 4 4 5 6 8 9 7 7
7 8 7 6 8 9 12 12 15 17 14 9 11 13 12 10 8 8 9 8 8 9 9 8 8 7 6 6 6 5 3 2 2 2 3 4 5 6 9 12 16 16 16 13
3 4 4 7 8 6 10 12 14 14 14 13 10 12 11 8 7 9 9 9 9 9 9 8 7 7 6 5 6 5 2 1 3 4 4 4 5 5 8 10 13 15 17 18
9 9 7 5 8 11 15 16 17 15 13 13 12 11 11 9 9 9 8 8 8 9 8 8 7 6 5 5 5 3 2 4 3 3 4 5 5 5 6 7 9 9 12 17
4 6 11 15 15 13 15 18 18 14 12 11 9 11 11 11 9 8 7 8 9 9 7 7 7 6 4 4 4 3 3 3 3 4 5 5 5 6 6 7 7 8 9 11
10 12 15 18 17 16 16 17 17 13 12 10 10 9 9 10 9 8 8 8 8 7 7 7 7 5 4 4 4 3 3 6 6 4 5 5 5 6 6 6 7 8 9 9
14 9 12 15 15 14 13 14 16 14 13 12 11 11 11 10 9 8 7 6 7 7 6 6 6 5 4 3 3 2 3 5 7 5 5 5 6 5 6 7 7 8 8 11
8 12 16 21 20 17 14 12 13 14 13 12 11 11 10 10 9 8 7 8 8 7 6 5 5 4 3 2 2 2 3 4 4 4 5 5 5 5 6 7 8 8 9 11
13 15 16 16 16 16 15 13 11 11 11 11 11 10 8 8 8 8 8 8 8 6 3 3 5 4 3 3 3 2 3 4 4 4 5 7 7 6 6 7 8 8 9 10
13 16 18 16 15 15 14 13 12 11 10 10 11 10 9 8 8 8 8 6 4 4 4 4 4 3 2 4 4 3 4 5 5 5 6 6 6 6 7 8 9 9 10 10
15 17 18 17 14 13 12 13 13 12 10 10 11 10 10 8 8 8 8 6 3 4 4 4 3 1 2 3 4 4 4 4 4 5 6 6 7 7 7 7 9 10 10 10
16 17 18 18 17 14 10 10 11 11 11 10 11 11 11 9 8 7 6 5 4 5 4 2 1 2 3 4 4 4 4 4 5 5 5 6 7 7 8 8 9 9 9 9
16 17 18 17 16 15 12 10 10 11 11 10 11 10 9 8 6 6 5 4 4 5 4 2 3 5 6 4 3 4 4 5 5 6 7 7 7 8 8 8 9 9 9 10
17 17 16 15 16 15 13 9 9 9 10 9 9 9 9 7 5 5 5 6 6 6 4 4 5 6 6 4 4 4 5 5 6 6 6 8 8 7 7 8 9 9 10 10
16 16 16 15 13 11 12 12 11 10 10 9 8 6 5 5 5 5 5 5 6 5 4 5 7 7 5 4 4 5 5 5 7 7 6 7 7 7 7 8 9 10 9 9
16 13 10 10 11 11 10 10 9 9 9 9 7 5 5 6 7 6 5 5 4 4 3 3 5 5 4 5 5 5 5 6 7 7 8 7 7 8 8 8 9 9 9 9
14 13 12 11 8 8 8 9 10 9 8 9 7 5 5 5 5 5 4 3 3 3 3 4 5 5 5 5 5 5 5 5 7 9 8 7 7 7 8 9 9 9 9 10
Wind_Direction
251 238 199 207 184 184 195 180 205 246 239 258 258 186 170 160 156 155 159 163 165 161 154 148 141 136 134 132 129 127 126 128 135 134 131 118 94 60 30 11 358 351 347 336
268 220 178 186 173 173 174 163 220 263 276 257 217 121 137 153 158 164 168 167 164 157 151 148 143 140 136 134 132 131 130 131 133 130 118 103 77 43 24 11 359 352 344 332
335 121 142 172 175 182 202 218 211 230 237 184 115 118 145 163 169 172 171 165 160 156 150 144 143 144 139 136 131 125 123 128 132 125 111 91 67 39 17 0 349 339 333 327
339 125 96 225 173 179 196 211 212 209 152 107 122 101 52 43 158 153 148 145 140 133 127 123 119 121 120 122 123 123 125 128 126 114 100 76 52 28 354 344 339 326 316 313
357 328 23 39 111 174 197 204 221 108 102 109 135 97 32 18 68 105 110 113 117 120 122 119 120 124 122 121 119 118 121 120 114 109 98 67 31 2 345 333 322 310 304 307
348 5 32 307 344 69 98 295 156 146 153 158 159 126 156 35 79 89 91 100 106 109 113 116 120 123 121 120 117 118 120 115 108 102 89 52 14 353 332 318 306 307 310 313
327 340 282 268 309 99 149 238 155 159 163 156 134 129 129 105 85 90 95 100 105 108 113 120 122 118 116 117 119 123 117 111 97 75 56 42 16 351 330 324 318 316 311 308
165 218 267 292 345 183 192 110 115 122 116 107 109 106 106 106 104 105 102 102 105 109 111 114 117 117 117 119 128 123 112 97 76 52 39 33 11 347 334 325 322 316 314 315
190 213 234 340 360 6 119 114 113 112 123 123 120 118 117 116 114 111 109 108 108 114 113 107 109 118 123 136 132 115 98 79 56 41 39 25 4 336 326 327 326 325 327 325
226 267 25 43 56 53 67 92 104 120 127 128 125 126 124 123 122 117 115 116 117 113 112 111 112 116 126 133 123 110 95 74 52 30 14 356 337 324 324 325 327 327 326 318
255 291 39 255 186 122 97 101 100 97 113 124 125 126 129 129 127 126 125 122 125 127 126 128 126 119 119 118 114 105 93 68 33 4 338 332 336 330 330 326 325 328 319 307
211 196 178 191 160 137 125 124 125 119 108 98 119 123 124 124 126 126 128 128 126 126 130 133 128 121 115 109 109 107 92 47 341 342 339 336 329 332 344 340 335 333 332 327
159 123 106 110 108 111 118 120 117 115 120 115 106 112 116 117 116 121 123 133 139 140 139 136 128 124 122 110 103 104 108 6 352 355 339 331 337 335 326 329 329 332 334 330
120 107 103 118 120 116 114 109 103 96 97 106 110 107 110 111 115 117 125 133 130 127 129 131 129 127 121 113 110 101 48 14 7 339 334 335 329 314 308 314 321 323 326 326
58 89 129 123 115 115 117 115 109 107 108 103 107 117 120 121 121 120 117 113 112 116 125 129 126 126 126 121 104 74 34 358 351 349 339 332 322 312 305 307 315 317 317 323
92 96 114 122 125 127 124 123 122 124 124 123 121 117 115 114 114 112 113 121 123 131 134 127 127 136 126 107 92 63 20 360 360 351 332 327 316 308 311 317 320 319 319 322
122 122 126 130 134 132 129 132 135 137 136 133 131 126 119 115 111 111 112 113 114 119 125 127 130 128 115 107 92 52 12 352 350 340 323 312 306 311 317 319 316 313 314 322
116 134 145 148 144 135 127 126 132 136 137 133 128 126 126 129 132 128 120 111 101 93 95 115 123 117 107 103 81 30 360 336 324 318 313 311 317 324 319 313 311 311 317 324
119 122 123 126 129 127 130 130 127 125 126 128 128 128 129 127 126 127 124 114 116 117 118 118 117 108 83 17 35 26 345 330 323 319 316 323 326 317 310 311 312 317 322 326
112 117 118 116 120 126 125 123 122 120 121 121 119 117 115 119 122 117 107 99 103 130 139 129 112 102 56 353 11 9 346 337 329 324 321 322 317 315 313 316 321 323 324 322
124 124 121 118 110 107 114 122 124 123 120 121 122 122 118 114 111 112 110 100 95 116 119 113 113 99 329 8 24 2 349 341 328 316 316 318 317 314 310 314 319 321 319 317
130 127 123 121 118 109 101 105 114 118 116 112 110 113 111 109 106 96 91 116 134 111 91 72 29 321 357 33 18 360 350 339 325 320 317 312 310 309 312 316 316 312 310 308
126 124 122 123 122 116 103 97 103 113 116 119 120 119 116 116 116 120 122 117 104 92 78 23 357 5 37 30 6 352 342 333 325 321 314 307 308 311 311 310 310 309 308 307
121 118 116 117 116 114 108 99 95 98 100 100 104 113 119 113 81 65 101 111 100 87 60 22 15 15 28 8 351 341 333 324 314 305 304 312 312 304 300 302 306 307 305 306
118 119 122 122 118 117 117 115 106 101 100 95 88 82 81 85 105 108 90 83 88 79 42 16 15 15 11 351 337 331 324 315 312 312 307 300 297 298 300 301 301 303 308 309
122 119 114 112 121 128 131 128 124 124 119 109 92 81 78 78 90 96 92 84 69 61 35 6 0 4 353 335 331 330 322 318 318 313 309 304 301 301 302 301 301 304 302 299
107 110 110 107 109 119 127 130 129 126 125 121 115 102 96 91 93 93 87 74 58 39 14 1 354 350 340 334 331 320 312 310 315 316 310 303 299 297 299 301 302 300 298 296
Height
1404 1404 1404 1391 1388 1398 1407 1405 1412 1410 1414 1401 1398 1384 1386 1392 1399 1406 1412 1418 1424 1429 1435 1442 1447 1452 1456 1459 1462 1464 1466 1468 1470 1471 1472 1472 1471 1470 1468 1466 1464 1461 1458 1454
1391 1380 1385 1381 1382 1392 1398 1408 1416 1419 1413 1395 1390 1384 1387 1392 1398 1404 1410 1416 1422 1428 1434 1440 1445 1449 1454 1458 1460 1463 1465 1467 1468 1469 1469 1469 1468 1467 1465 1463 1460 1458 1453 1449
1384 1375 1379 1384 1381 1388 1400 1410 1417 1417 1401 1384 1385 1387 1390 1392 1396 1401 1407 1413 1420 1426 1433 1439 1444 1450 1453 1456 1459 1461 1463 1465 1466 1467 1467 1467 1465 1464 1462 1459 1457 1453 1449 1444
1385 1382 1387 1374 1368 1381 1395 1397 1399 1393 1380 1377 1385 1392 1393 1395 1398 1401 1407 1413 1420 1427 1434 1441 1445 1450 1453 1456 1458 1460 1462 1463 1465 1465 1465 1464 1462 1461 1459 1456 1453 1449 1445 1440
1387 1382 1374 1370 1370 1374 1378 1380 1377 1375 1380 1384 1388 1391 1396 1397 1400 1403 1408 1414 1421 1428 1435 1440 1445 1449 1452 1454 1457 1459 1460 1462 1462 1462 1462 1461 1460 1458 1455 1452 1449 1445 1440 1435
1389 1387 1383 1373 1369 1368 1371 1378 1373 1376 1381 1384 1388 1396 1404 1401 1402 1406 1411 1417 1424 1431 1436 1441 1445 1448 1451 1453 1456 1457 1459 1460 1460 1460 1459 1458 1457 1455 1451 1448 1444 1440 1436 1431
1392 1392 1384 1370 1369 1371 1382 1380 1372 1375 1378 1382 1386 1391 1399 1403 1406 1411 1416 1422 1427 1432 1437 1441 1444 1447 1450 1452 1454 1456 1457 1458 1458 1458 1457 1456 1454 1451 1448 1444 1440 1436 1431 1426
1387 1392 1391 1369 1369 1374 1374 1371 1371 1375 1380 1384 1388 1393 1399 1405 1411 1415 1419 1424 1429 1433 1437 1441 1444 1447 1449 1452 1453 1455 1456 1456 1456 1456 1455 1453 1451 1448 1444 1440 1435 1429 1424 1420
1382 1384 1374 1370 1370 1371 1371 1371 1373 1375 1381 1384 1390 1397 1403 1409 1415 1419 1423 1426 1431 1434 1437 1441 1445 1447 1449 1451 1453 1454 1454 1454 1454 1453 1451 1449 1446 1443 1439 1434 1429 1424 1419 1415
1375 1372 1372 1372 1372 1373 1373 1374 1376 1379 1383 1387 1392 1400 1407 1413 1418 1421 1425 1429 1433 1436 1438 1441 1444 1447 1449 1450 1451 1452 1452 1452 1451 1450 1448 1446 1442 1438 1434 1429 1424 1420 1415 1411
1373 1372 1372 1373 1373 1375 1375 1377 1380 1384 1388 1392 1397 1404 1410 1415 1419 1423 1426 1430 1434 1436 1438 1440 1443 1445 1447 1449 1450 1450 1450 1450 1448 1447 1444 1442 1439 1435 1431 1427 1423 1419 1413 1408
1368 1365 1367 1368 1372 1374 1376 1379 1384 1387 1393 1399 1403 1407 1412 1417 1421 1424 1427 1431 1433 1436 1438 1440 1442 1444 1446 1447 1448 1448 1448 1447 1445 1443 1441 1438 1435 1432 1429 1425 1421 1415 1410 1406
1361 1362 1365 1367 1371 1375 1378 1382 1386 1391 1395 1401 1407 1411 1414 1418 1422 1425 1428 1430 1433 1435 1438 1440 1442 1443 1445 1446 1446 1446 1446 1444 1443 1441 1438 1435 1431 1427 1423 1419 1416 1412 1407 1402
1359 1361 1366 1369 1372 1377 1380 1385 1390 1395 1401 1405 1409 1412 1415 1418 1422 1425 1428 1430 1433 1435 1437 1439 1441 1443 1444 1444 1445 1444 1443 1442 1440 1438 1435 1431 1428 1424 1419 1414 1410 1405 1402 1397
1358 1359 1362 1367 1373 1379 1384 1387 1393 1399 1404 1408 1412 1414 1417 1419 1422 1425 1428 1430 1433 1435 1437 1439 1440 1441 1442 1443 1443 1442 1441 1439 1437 1435 1432 1429 1425 1421 1416 1411 1407 1402 1397 1392
1358 1360 1364 1368 1374 1380 1385 1390 1394 1400 1406 1410 1413 1416 1419 1421 1423 1426 1428 1430 1433 1435 1436 1438 1439 1441 1441 1442 1441 1440 1439 1437 1435 1432 1429 1425 1422 1417 1413 1408 1404 1399 1394 1389
1357 1362 1366 1371 1375 1381 1386 1391 1396 1401 1406 1410 1413 1416 1418 1421 1423 1426 1428 1431 1433 1435 1436 1438 1439 1440 1440 1440 1439 1438 1436 1434 1431 1428 1425 1421 1418 1414 1410 1405 1401 1396 1392 1387
1356 1358 1362 1364 1370 1380 1388 1393 1398 1402 1406 1410 1413 1416 1419 1422 1424 1426 1428 1430 1432 1434 1436 1438 1439 1439 1438 1438 1437 1435 1433 1430 1427 1424 1421 1417 1414 1410 1407 1402 1398 1393 1388 1383
1357 1361 1365 1370 1376 1383 1389 1395 1400 1404 1408 1411 1414 1417 1420 1423 1425 1426 1428 1431 1433 1435 1436 1437 1437 1437 1437 1436 1434 1432 1429 1426 1423 1420 1417 1414 1410 1406 1403 1399 1394 1390 1385 1380
1358 1362 1366 1373 1380 1386 1391 1397 1401 1406 1409 1412 1415 1418 1421 1423 1425 1427 1429 1431 1433 1435 1435 1436 1436 1435 1434 1433 1431 1428 1425 1423 1420 1417 1413 1409 1406 1402 1398 1395 1390 1386 1381 1376
1358 1362 1368 1375 1382 1388 1393 1398 1402 1406 1410 1414 1416 1418 1421 1423 1426 1428 1430 1431 1433 1434 1434 1434 1434 1433 1431 1429 1427 1424 1421 1419 1416 1412 1409 1405 1401 1398 1394 1390 1386 1382 1377 1373
1359 1364 1371 1377 1384 1390 1396 1401 1405 1408 1411 1414 1417 1419 1420 1423 1425 1428 1430 1431 1432 1432 1432 1432 1431 1430 1428 1425 1423 1420 1417 1414 1411 1408 1404 1401 1398 1394 1390 1386 1381 1377 1373 1369
1360 1367 1374 1380 1385 1391 1397 1402 1406 1409 1412 1414 1416 1418 1421 1423 1426 1428 1429 1430 1430 1430 1430 1429 1428 1426 1424 1422 1419 1416 1413 1410 1407 1403 1400 1397 1394 1390 1385 1381 1377 1372 1368 1364
1363 1370 1376 1382 1387 1392 1397 1402 1406 1410 1412 1415 1417 1420 1422 1424 1425 1427 1428 1429 1429 1429 1428 1427 1425 1423 1420 1418 1415 1412 1409 1406 1403 1399 1396 1393 1389 1385 1380 1376 1371 1367 1363 1359
1367 1373 1379 1384 1389 1393 1398 1402 1406 1410 1413 1415 1418 1421 1423 1425 1426 1427 1427 1428 1428 1427 1425 1424 1422 1419 1417 1414 1411 1408 1405 1402 1399 1395 1392 1388 1384 1379 1375 1370 1366 1362 1359 1355
1372 1377 1383 1387 1392 1396 1400 1404 1407 1410 1413 1416 1418 1421 1423 1424 1425 1426 1427 1426 1425 1424 1423 1421 1418 1416 1413 1410 1407 1405 1402 1398 1394 1391 1387 1383 1379 1374 1370 1366 1362 1359 1355 1352
1375 1381 1385 1390 1395 1399 1403 1406 1408 1411 1414 1417 1419 1421 1423 1424 1425 1425 1425 1425 1424 1422 1420 1417 1415 1412 1409 1406 1404 1401 1397 1394 1390 1386 1382 1379 1375 1371 1366 1362 1359 1355 1352 1350